Time,TemperatureF,DewpointF,PressureIn,WindDirection,WindDirectionDegrees,WindSpeedMPH,WindSpeedGustMPH,Humidity,HourlyPrecipIn,Conditions,Clouds,dailyrainin,SolarRadiationWatts/m^2,SoftwareType,DateUTC
2013-01-28 00:08:00,48.3,36.0,30.21,North,353,1.0,4.0,63,0.00,,,0.00,0,weatherlink.com 1.10,2013-01-28 08:08:00,
2013-01-28 00:22:00,47.9,37.0,30.21,WNW,292,0.0,9.0,65,0.00,,,0.00,0,weatherlink.com 1.10,2013-01-28 08:22:00,
2013-01-28 00:37:00,47.6,36.0,30.21,NW,316,0.0,5.0,65,0.00,,,0.00,0,weatherlink.com 1.10,2013-01-28 08:37:00,
2013-01-28 00:52:00,47.6,36.0,30.21,NNE,21,6.0,8.0,64,0.00,,,0.00,0,weatherlink.com 1.10,2013-01-28 08:52:00,
2013-01-28 01:07:00,47.4,36.0,30.21,North,8,5.0,7.0,65,0.00,,,0.00,0,weatherlink.com 1.10,2013-01-28 09:07:00,
2013-01-28 01:22:00,47.4,36.0,30.22,North,350,0.0,5.0,66,0.00,,,0.00,0,weatherlink.com 1.10,2013-01-28 09:22:00,
2013-01-28 01:37:00,47.4,36.0,30.21,NNW,344,1.0,7.0,65,0.00,,,0.00,0,weatherlink.com 1.10,2013-01-28 09:37:00,
2013-01-28 01:52:00,47.5,36.0,30.22,NNW,330,0.0,8.0,65,0.00,,,0.00,0,weatherlink.com 1.10,2013-01-28 09:52:00,
2013-01-28 02:07:00,47.5,36.0,30.22,NE,36,4.0,6.0,64,0.00,,,0.00,0,weatherlink.com 1.10,2013-01-28 10:07:00,
2013-01-28 02:22:00,47.5,36.0,30.22,North,351,0.0,5.0,64,0.00,,,0.00,0,weatherlink.com 1.10,2013-01-28 10:22:00,
2013-01-28 02:37:00,47.4,35.0,30.22,NNW,336,3.0,8.0,63,0.00,,,0.00,0,weatherlink.com 1.10,2013-01-28 10:37:00,
2013-01-28 02:53:00,47.3,36.0,30.22,NNW,333,7.0,7.0,64,0.00,,,0.00,0,weatherlink.com 1.10,2013-01-28 10:53:00,
2013-01-28 03:07:00,47.4,35.0,30.22,West,275,2.0,6.0,63,0.00,,,0.00,0,weatherlink.com 1.10,2013-01-28 11:07:00,
2013-01-28 03:23:00,47.4,35.0,30.22,WSW,252,4.0,7.0,63,0.00,,,0.00,0,weatherlink.com 1.10,2013-01-28 11:23:00,
2013-01-28 03:38:00,47.3,36.0,30.22,NNW,334,1.0,2.0,64,0.00,,,0.00,0,weatherlink.com 1.10,2013-01-28 11:38:00,
2013-01-28 03:53:00,46.8,36.0,30.22,WSW,241,1.0,3.0,66,0.00,,,0.00,0,weatherlink.com 1.10,2013-01-28 11:53:00,
2013-01-28 04:08:00,47.0,36.0,30.22,WSW,242,3.0,4.0,65,0.00,,,0.00,0,weatherlink.com 1.10,2013-01-28 12:08:00,
2013-01-28 04:23:00,47.1,36.0,30.21,WSW,243,1.0,4.0,66,0.00,,,0.00,0,weatherlink.com 1.10,2013-01-28 12:23:00,
2013-01-28 04:39:00,47.2,37.0,30.21,NNW,335,0.0,5.0,68,0.00,,,0.00,0,weatherlink.com 1.10,2013-01-28 12:39:00,
2013-01-28 04:53:00,47.8,37.0,30.21,WSW,256,6.0,11.0,66,0.00,,,0.00,0,weatherlink.com 1.10,2013-01-28 12:53:00,
2013-01-28 05:08:00,48.0,37.0,30.21,West,264,0.0,7.0,67,0.00,,,0.00,0,weatherlink.com 1.10,2013-01-28 13:08:00,
2013-01-28 05:23:00,47.7,38.0,30.21,West,266,0.0,3.0,69,0.00,,,0.00,0,weatherlink.com 1.10,2013-01-28 13:23:00,
2013-01-28 05:38:00,47.9,38.0,30.21,WNW,288,0.0,1.0,69,0.00,,,0.00,0,weatherlink.com 1.10,2013-01-28 13:38:00,
2013-01-28 05:53:00,47.9,39.0,30.20,WNW,288,0.0,2.0,70,0.00,,,0.00,0,weatherlink.com 1.10,2013-01-28 13:53:00,
2013-01-28 06:08:00,48.3,40.0,30.20,NW,309,1.0,3.0,73,0.00,,,0.00,0,weatherlink.com 1.10,2013-01-28 14:08:00,
2013-01-28 06:23:00,48.3,41.0,30.21,NW,316,2.0,7.0,75,0.00,,,0.00,0,weatherlink.com 1.10,2013-01-28 14:23:00,
2013-01-28 06:38:00,47.9,41.0,30.21,SW,215,2.0,5.0,77,0.00,,,0.00,0,weatherlink.com 1.10,2013-01-28 14:38:00,
2013-01-28 06:53:00,47.8,41.0,30.22,SSW,204,2.0,6.0,78,0.00,,,0.00,0,weatherlink.com 1.10,2013-01-28 14:53:00,
2013-01-28 07:08:00,47.6,41.0,30.22,SW,217,3.0,6.0,78,0.00,,,0.00,0,weatherlink.com 1.10,2013-01-28 15:08:00,
2013-01-28 07:23:00,47.5,41.0,30.23,NW,316,0.0,5.0,79,0.00,,,0.00,9,weatherlink.com 1.10,2013-01-28 15:23:00,
2013-01-28 07:38:00,47.6,41.0,30.23,North,3,4.0,6.0,79,0.00,,,0.00,16,weatherlink.com 1.10,2013-01-28 15:38:00,
2013-01-28 07:53:00,47.9,41.0,30.24,WNW,303,2.0,7.0,77,0.00,,,0.00,21,weatherlink.com 1.10,2013-01-28 15:53:00,
2013-01-28 08:08:00,47.9,41.0,30.24,West,269,5.0,9.0,76,0.00,,,0.00,28,weatherlink.com 1.10,2013-01-28 16:08:00,
2013-01-28 08:23:00,48.2,41.0,30.24,NNW,345,3.0,8.0,77,0.00,,,0.00,134,weatherlink.com 1.10,2013-01-28 16:23:00,
2013-01-28 08:38:00,48.4,42.0,30.25,NW,322,4.0,8.0,77,0.00,,,0.00,193,weatherlink.com 1.10,2013-01-28 16:38:00,
2013-01-28 08:53:00,48.7,41.0,30.25,NNW,347,3.0,8.0,75,0.00,,,0.00,234,weatherlink.com 1.10,2013-01-28 16:53:00,
2013-01-28 09:09:00,49.8,41.0,30.26,NNW,329,1.0,6.0,73,0.00,,,0.00,276,weatherlink.com 1.10,2013-01-28 17:09:00,
2013-01-28 09:23:00,50.7,42.0,30.26,ESE,104,0.0,4.0,71,0.00,,,0.00,302,weatherlink.com 1.10,2013-01-28 17:23:00,
2013-01-28 09:38:00,50.3,41.0,30.26,NNE,19,2.0,5.0,70,0.00,,,0.00,357,weatherlink.com 1.10,2013-01-28 17:38:00,
2013-01-28 09:53:00,51.3,41.0,30.27,NNE,12,0.0,3.0,69,0.00,,,0.00,383,weatherlink.com 1.10,2013-01-28 17:53:00,
2013-01-28 10:23:00,53.5,41.0,30.28,NNE,16,1.0,5.0,63,0.00,,,0.00,457,weatherlink.com 1.10,2013-01-28 18:23:00,
2013-01-28 10:39:00,54.3,41.0,30.29,NNW,329,4.0,5.0,61,0.00,,,0.00,504,weatherlink.com 1.10,2013-01-28 18:39:00,
2013-01-28 10:54:00,54.1,40.0,30.29,NE,56,0.0,5.0,60,0.00,,,0.00,499,weatherlink.com 1.10,2013-01-28 18:54:00,
2013-01-28 11:09:00,55.3,40.0,30.29,SW,232,0.0,5.0,57,0.00,,,0.00,522,weatherlink.com 1.10,2013-01-28 19:09:00,
2013-01-28 11:24:00,56.2,40.0,30.29,NNW,340,4.0,6.0,54,0.00,,,0.00,541,weatherlink.com 1.10,2013-01-28 19:24:00,
2013-01-28 11:39:00,57.3,40.0,30.29,North,351,3.0,6.0,52,0.00,,,0.00,550,weatherlink.com 1.10,2013-01-28 19:39:00,
2013-01-28 11:54:00,57.2,39.0,30.28,NNW,348,2.0,6.0,52,0.00,,,0.00,561,weatherlink.com 1.10,2013-01-28 19:54:00,
2013-01-28 12:09:00,57.8,40.0,30.28,NNW,345,1.0,6.0,51,0.00,,,0.00,564,weatherlink.com 1.10,2013-01-28 20:09:00,
2013-01-28 12:24:00,57.7,39.0,30.27,NNW,339,4.0,8.0,50,0.00,,,0.00,566,weatherlink.com 1.10,2013-01-28 20:24:00,
2013-01-28 12:39:00,58.7,39.0,30.27,WNW,302,1.0,7.0,48,0.00,,,0.00,568,weatherlink.com 1.10,2013-01-28 20:39:00,
2013-01-28 12:54:00,58.9,40.0,30.27,WSW,239,1.0,8.0,49,0.00,,,0.00,561,weatherlink.com 1.10,2013-01-28 20:54:00,
2013-01-28 13:09:00,58.2,41.0,30.26,SSW,200,3.0,7.0,53,0.00,,,0.00,557,weatherlink.com 1.10,2013-01-28 21:09:00,
2013-01-28 13:24:00,58.7,40.0,30.26,NNW,331,1.0,10.0,51,0.00,,,0.00,543,weatherlink.com 1.10,2013-01-28 21:24:00,
2013-01-28 13:39:00,58.0,41.0,30.26,South,174,3.0,8.0,53,0.00,,,0.00,540,weatherlink.com 1.10,2013-01-28 21:39:00,
2013-01-28 13:54:00,57.6,40.0,30.25,WSW,257,5.0,9.0,53,0.00,,,0.00,490,weatherlink.com 1.10,2013-01-28 21:54:00,
2013-01-28 14:09:00,57.3,42.0,30.26,WNW,288,2.0,13.0,58,0.00,,,0.00,469,weatherlink.com 1.10,2013-01-28 22:09:00,
2013-01-28 14:24:00,58.4,43.0,30.25,WNW,285,6.0,9.0,57,0.00,,,0.00,439,weatherlink.com 1.10,2013-01-28 22:24:00,
2013-01-28 14:39:00,56.4,43.0,30.25,West,260,7.0,14.0,62,0.00,,,0.00,376,weatherlink.com 1.10,2013-01-28 22:39:00,
2013-01-28 14:54:00,56.5,44.0,30.25,WSW,253,4.0,12.0,63,0.00,,,0.00,404,weatherlink.com 1.10,2013-01-28 22:54:00,
2013-01-28 15:09:00,56.5,44.0,30.25,SSW,200,7.0,13.0,63,0.00,,,0.00,281,weatherlink.com 1.10,2013-01-28 23:09:00,
2013-01-28 15:24:00,56.8,43.0,30.25,SSW,212,2.0,8.0,61,0.00,,,0.00,279,weatherlink.com 1.10,2013-01-28 23:24:00,
2013-01-28 15:39:00,56.5,43.0,30.26,West,271,2.0,9.0,62,0.00,,,0.00,255,weatherlink.com 1.10,2013-01-28 23:39:00,
2013-01-28 15:54:00,57.0,43.0,30.26,WSW,242,2.0,5.0,59,0.00,,,0.00,232,weatherlink.com 1.10,2013-01-28 23:54:00,
2013-01-28 16:09:00,56.9,42.0,30.26,NNW,331,3.0,6.0,57,0.00,,,0.00,130,weatherlink.com 1.10,2013-01-29 00:09:00,
2013-01-28 16:24:00,56.1,43.0,30.26,SSW,207,0.0,4.0,62,0.00,,,0.00,98,weatherlink.com 1.10,2013-01-29 00:24:00,
2013-01-28 16:39:00,55.0,43.0,30.27,WNW,291,0.0,8.0,65,0.00,,,0.00,84,weatherlink.com 1.10,2013-01-29 00:39:00,
2013-01-28 16:54:00,54.2,43.0,30.27,SW,234,6.0,9.0,66,0.00,,,0.00,40,weatherlink.com 1.10,2013-01-29 00:54:00,
2013-01-28 17:09:00,53.6,43.0,30.27,WNW,289,1.0,13.0,68,0.00,,,0.00,26,weatherlink.com 1.10,2013-01-29 01:09:00,
2013-01-28 17:24:00,53.1,43.0,30.27,WNW,287,0.0,8.0,69,0.00,,,0.00,7,weatherlink.com 1.10,2013-01-29 01:24:00,
2013-01-28 17:39:00,52.8,43.0,30.27,West,271,0.0,7.0,69,0.00,,,0.00,0,weatherlink.com 1.10,2013-01-29 01:39:00,
2013-01-28 17:54:00,52.4,43.0,30.28,West,260,3.0,9.0,71,0.00,,,0.00,0,weatherlink.com 1.10,2013-01-29 01:54:00,
2013-01-28 18:09:00,52.2,43.0,30.28,SSW,200,0.0,7.0,70,0.00,,,0.00,0,weatherlink.com 1.10,2013-01-29 02:09:00,
2013-01-28 18:24:00,51.9,42.0,30.29,SW,220,1.0,7.0,70,0.00,,,0.00,0,weatherlink.com 1.10,2013-01-29 02:24:00,
2013-01-28 18:39:00,51.7,42.0,30.30,West,262,0.0,6.0,70,0.00,,,0.00,0,weatherlink.com 1.10,2013-01-29 02:39:00,
2013-01-28 18:54:00,51.6,42.0,30.30,WSW,247,0.0,7.0,70,0.00,,,0.00,0,weatherlink.com 1.10,2013-01-29 02:54:00,
2013-01-28 19:09:00,51.1,43.0,30.30,SSW,210,3.0,8.0,73,0.00,,,0.00,0,weatherlink.com 1.10,2013-01-29 03:09:00,
2013-01-28 19:25:00,50.9,43.0,30.30,West,263,5.0,5.0,74,0.00,,,0.00,0,weatherlink.com 1.10,2013-01-29 03:25:00,
2013-01-28 19:39:00,50.6,43.0,30.31,WSW,242,3.0,7.0,75,0.00,,,0.00,0,weatherlink.com 1.10,2013-01-29 03:39:00,
2013-01-28 19:54:00,50.5,43.0,30.31,West,262,4.0,8.0,76,0.00,,,0.00,0,weatherlink.com 1.10,2013-01-29 03:54:00,
2013-01-28 20:09:00,50.3,43.0,30.31,SW,235,3.0,7.0,76,0.00,,,0.00,0,weatherlink.com 1.10,2013-01-29 04:09:00,
2013-01-28 20:24:00,50.2,43.0,30.31,SW,218,1.0,7.0,76,0.00,,,0.00,0,weatherlink.com 1.10,2013-01-29 04:24:00,
2013-01-28 20:39:00,50.0,43.0,30.31,West,276,2.0,6.0,77,0.00,,,0.00,0,weatherlink.com 1.10,2013-01-29 04:39:00,
2013-01-28 20:54:00,49.8,43.0,30.32,WSW,237,2.0,7.0,78,0.00,,,0.00,0,weatherlink.com 1.10,2013-01-29 04:54:00,
2013-01-28 21:09:00,49.8,43.0,30.33,North,351,2.0,7.0,77,0.00,,,0.00,0,weatherlink.com 1.10,2013-01-29 05:09:00,
2013-01-28 21:24:00,49.6,43.0,30.32,WSW,244,3.0,8.0,78,0.00,,,0.00,0,weatherlink.com 1.10,2013-01-29 05:24:00,
2013-01-28 21:39:00,49.4,42.0,30.32,WSW,256,2.0,5.0,77,0.00,,,0.00,0,weatherlink.com 1.10,2013-01-29 05:39:00,
2013-01-28 21:54:00,49.5,43.0,30.31,WSW,248,4.0,8.0,77,0.00,,,0.00,0,weatherlink.com 1.10,2013-01-29 05:54:00,
2013-01-28 22:09:00,49.5,42.0,30.32,West,265,2.0,7.0,76,0.00,,,0.00,0,weatherlink.com 1.10,2013-01-29 06:09:00,
2013-01-28 22:24:00,49.2,43.0,30.32,West,264,4.0,9.0,78,0.00,,,0.00,0,weatherlink.com 1.10,2013-01-29 06:24:00,
2013-01-28 22:39:00,49.1,43.0,30.32,West,261,2.0,4.0,79,0.00,,,0.00,0,weatherlink.com 1.10,2013-01-29 06:39:00,
2013-01-28 22:54:00,49.2,42.0,30.32,NW,312,0.0,5.0,76,0.00,,,0.00,0,weatherlink.com 1.10,2013-01-29 06:54:00,
2013-01-28 23:10:00,49.4,41.0,30.32,NNW,342,1.0,6.0,73,0.00,,,0.00,0,weatherlink.com 1.10,2013-01-29 07:10:00,
2013-01-28 23:24:00,49.7,41.0,30.32,South,189,1.0,6.0,71,0.00,,,0.00,0,weatherlink.com 1.10,2013-01-29 07:24:00,
2013-01-28 23:39:00,48.6,42.0,30.33,SW,221,3.0,4.0,78,0.00,,,0.00,0,weatherlink.com 1.10,2013-01-29 07:39:00,
2013-01-28 23:54:00,48.3,42.0,30.33,SW,217,2.0,4.0,80,0.00,,,0.00,0,weatherlink.com 1.10,2013-01-29 07:54:00,